FW2738 Weather Reports


Display with metric or nautical units.
time (UTC)temp
F
wind
direction
speed
MPH
gust
MPH
rain 1hr
in
rain 24hr
in
rain mn
in
humidity
%
barometer
mb
20260906044515 81 204 1.0 3.0 0.00 0.00 0.00 71 1011.3
20260906043014 81 207 2.0 5.0 0.00 0.00 0.00 71 1011.4
20260906041514 81 154 3.0 5.0 0.00 0.00 0.00 71 1011.4
20260906040020 82 157 1.0 3.0 0.00 0.00 0.00 71 1011.2
20260906034513 82 167 1.0 5.0 0.00 0.00 0.00 70 1011.2
20260906033012 83 177 0.0 2.0 0.00 0.00 0.00 69 1011.3
20260906031512 83 168 0.0 0.0 0.00 0.00 0.00 68 1011.2
20260906030012 84 153 2.0 5.0 0.00 0.00 0.00 67 1011.3
20260906024530 84 159 4.0 7.0 0.00 0.00 0.00 67 1011.2
20260906023015 85 155 3.0 7.0 0.00 0.00 0.00 67 1010.8
20260906021511 85 156 3.0 7.0 0.00 0.00 0.00 66 1010.6
20260906020010 86 165 3.0 6.0 0.00 0.00 0.00 64 1010.2
20260906014511 86 160 5.0 10.0 0.00 0.00 0.00 62 1010.1
20260906013027 87 156 6.0 12.0 0.00 0.00 0.00 62 1010.1
20260906011509 87 167 7.0 12.0 0.00 0.00 0.00 61 1010.0
20260906010008 88 144 9.0 18.0 0.00 0.00 0.00 59 1009.8
20260906004508 90 107 9.0 20.0 0.00 0.00 0.00 53 1009.5
20260906003006 95 153 4.0 8.0 0.00 0.00 0.00 44 1009.1
20260906001505 96 144 2.0 8.0 0.00 0.00 0.00 42 1009.2
20260906000005 97 153 2.0 10.0 0.00 0.00 0.00 41 1009.1
20260905234506 98 115 5.0 10.0 0.00 0.00 0.00 41 1009.0
20260905233005 98 128 2.0 9.0 0.00 0.00 0.00 40 1009.0
20260905231504 97 100 2.0 8.0 0.00 0.00 0.00 41 1009.0
20260905230004 97 155 0.0 2.0 0.00 0.00 0.00 41 1009.1
20260905224502 97 69 1.0 8.0 0.00 0.00 0.00 40 1009.0
20260905223002 97 60 4.0 6.0 0.00 0.00 0.00 41 1009.0
20260905221615 97 107 0.0 3.0 0.00 0.00 0.00 41 1009.1
20260905220059 98 107 6.0 10.0 0.00 0.00 0.00 40 1009.2
20260905214601 99 113 1.0 7.0 0.00 0.00 0.00 40 1009.3
20260905213104 98 147 4.0 11.0 0.00 0.00 0.00 40 1009.4
20260905211600 99 158 3.0 9.0 0.00 0.00 0.00 39 1009.4
20260905210058 98 206 1.0 3.0 0.00 0.00 0.00 41 1009.7
20260905204554 98 65 5.0 14.0 0.00 0.00 0.00 40 1009.9
20260905203054 98 221 3.0 12.0 0.00 0.00 0.00 41 1010.0
20260905201607 97 104 6.0 14.0 0.00 0.00 0.00 42 1010.2
20260905200048 98 122 5.0 9.0 0.00 0.00 0.00 40 1010.5
20260905194544 97 165 0.0 9.0 0.00 0.00 0.00 43 1010.7
20260905193047 96 209 0.0 14.0 0.00 0.00 0.00 44 1010.9
20260905191540 95 136 7.0 12.0 0.00 0.00 0.00 45 1011.3
20260905190038 97 136 4.0 14.0 0.00 0.00 0.00 45 1011.7
20260905184542 94 23 0.0 5.0 0.00 0.00 0.00 49 1012.0
20260905183036 95 118 7.0 10.0 0.00 0.00 0.00 47 1012.2
20260905181535 94 149 5.0 9.0 0.00 0.00 0.00 48 1012.3
20260905180038 92 44 2.0 4.0 0.00 0.00 0.00 51 1012.6
20260905174534 94 183 4.0 9.0 0.00 0.00 0.00 48 1012.8
20260905173031 94 182 4.0 11.0 0.00 0.00 0.00 49 1013.0
20260905171528 91 88 1.0 13.0 0.00 0.00 0.00 51 1013.1
20260905170027 93 155 2.0 12.0 0.00 0.00 0.00 50 1013.1
20260905164525 92 137 1.0 9.0 0.00 0.00 0.00 52 1013.2
20260905163022 90 42 1.0 3.0 0.00 0.00 0.00 54 1013.3
20260905161521 91 105 5.0 9.0 0.00 0.00 0.00 54 1013.4
20260905160021 89 238 1.0 7.0 0.00 0.00 0.00 56 1013.4
20260905154520 90 207 4.0 7.0 0.00 0.00 0.00 56 1013.5
20260905153016 88 252 3.0 5.0 0.00 0.00 0.00 60 1013.4
20260905151514 88 266 5.0 8.0 0.00 0.00 0.00 61 1013.3
20260905150013 87 240 4.0 8.0 0.00 0.00 0.00 62 1013.3
20260905144510 86 221 3.0 8.0 0.00 0.00 0.00 65 1013.2
20260905143017 85 247 3.0 8.0 0.00 0.00 0.00 66 1013.2
20260905141506 84 231 5.0 6.0 0.00 0.00 0.00 68 1013.2
20260905140003 83 205 4.0 6.0 0.00 0.00 0.00 71 1013.1
20260905134600 82 174 0.0 3.0 0.00 0.00 0.00 73 1013.0
20260905133056 81 143 0.0 0.0 0.00 0.00 0.00 75 1013.0
20260905131606 79 143 0.0 0.0 0.00 0.00 0.00 78 1013.0
20260905130054 78 144 0.0 0.0 0.00 0.00 0.00 80 1012.8
20260905124554 76 144 0.0 0.0 0.00 0.00 0.00 83 1012.7
20260905123050 75 144 0.0 0.0 0.00 0.00 0.00 84 1012.4
20260905121550 75 146 0.0 2.0 0.00 0.00 0.00 84 1012.2
20260905120048 75 146 0.0 0.0 0.00 0.00 0.00 84 1012.2
20260905114548 76 146 0.0 0.0 0.00 0.00 0.00 82 1012.1
20260905113047 76 146 0.0 3.0 0.00 0.00 0.00 82 1012.0
20260905111601 76 194 3.0 5.0 0.00 0.00 0.00 81 1011.9
20260905110053 76 205 2.0 4.0 0.00 0.00 0.00 81 1012.0
20260905104559 75 173 0.0 0.0 0.00 0.00 0.00 82 1012.2
20260905103045 76 173 0.0 0.0 0.00 0.00 0.00 81 1012.4
20260905101544 76 173 0.0 0.0 0.00 0.00 0.00 81 1012.4
20260905100042 75 173 0.0 0.0 0.00 0.00 0.00 82 1012.2
20260905094540 77 173 0.0 0.0 0.00 0.00 0.00 79 1012.1
20260905093039 76 173 0.0 0.0 0.00 0.00 0.00 80 1012.0
20260905091546 77 173 0.0 0.0 0.00 0.00 0.00 79 1011.9
20260905090036 77 173 0.0 0.0 0.00 0.00 0.00 78 1011.7
20260905084542 78 173 0.0 0.0 0.00 0.00 0.00 76 1011.6
20260905083033 78 173 0.0 0.0 0.00 0.00 0.00 76 1011.5
20260905081532 78 173 0.0 0.0 0.00 0.00 0.00 75 1011.6
20260905080038 78 173 1.0 3.0 0.00 0.00 0.00 75 1011.6
20260905074531 78 152 0.0 0.0 0.00 0.00 0.00 75 1011.7
20260905073034 79 152 0.0 2.0 0.00 0.00 0.00 74 1011.7
20260905071528 79 153 0.0 0.0 0.00 0.00 0.00 73 1011.8
20260905070057 79 155 0.0 2.0 0.00 0.00 0.00 73 1011.9
20260905064527 79 147 0.0 2.0 0.00 0.00 0.00 72 1012.1
20260905063026 79 142 1.0 3.0 0.00 0.00 0.00 72 1012.1
20260905061525 79 143 0.0 0.0 0.00 0.00 0.00 72 1012.0
20260905060023 79 143 0.0 0.0 0.00 0.00 0.00 73 1012.0
20260905054540 79 197 0.0 0.0 0.00 0.00 0.00 72 1011.8
20260905053019 80 197 0.0 0.0 0.00 0.00 0.00 72 1011.7
20260905051534 81 197 0.0 0.0 0.00 0.00 0.00 70 1011.7
20260905050013 81 197 0.0 0.0 0.00 0.00 0.00 68 1011.8